DW1183 Weather Reports


Display with metric or nautical units.
time (UTC)temp
F
wind
direction
speed
MPH
gust
MPH
rain 1hr
in
rain 24hr
in
rain mn
in
humidity
%
barometer
mb
20260504023047 69 169 1.0 4.0 0.00 0.00 0.00 68 1019.4
20260504021550 69 169 3.0 5.0 0.00 0.00 0.00 64 1019.5
20260504020045 69 166 3.0 6.0 0.00 0.00 0.00 63 1019.4
20260504014545 70 165 3.0 7.0 0.00 0.00 0.00 63 1019.4
20260504013050 70 171 3.0 5.0 0.00 0.00 0.00 63 1019.5
20260504011544 71 174 3.0 6.0 0.00 0.00 0.00 61 1019.3
20260504010043 71 156 1.0 6.0 0.00 0.00 0.00 62 1019.3
20260504004543 72 171 2.0 6.0 0.00 0.00 0.00 59 1019.2
20260504003042 73 150 4.0 8.0 0.00 0.00 0.00 56 1019.2
20260504001557 73 150 3.0 8.0 0.00 0.00 0.00 55 1019.2
20260504000040 74 177 3.0 7.0 0.00 0.00 0.00 56 1019.1
20260503234538 74 166 5.0 9.0 0.00 0.00 0.00 54 1019.4
20260503233039 75 131 5.0 9.0 0.00 0.00 0.00 51 1019.6
20260503231536 76 162 4.0 7.0 0.00 0.00 0.00 52 1019.6
20260503230040 76 180 5.0 10.0 0.00 0.00 0.00 51 1019.7
20260503224533 76 153 4.0 11.0 0.00 0.00 0.00 48 1019.7
20260503223032 78 165 3.0 9.0 0.00 0.00 0.00 50 1020.1
20260503221538 78 145 2.0 8.0 0.00 0.00 0.00 46 1020.0
20260503220030 78 164 1.0 6.0 0.00 0.00 0.00 47 1020.0
20260503214529 79 160 0.0 6.0 0.00 0.00 0.00 44 1020.3
20260503213034 78 153 1.0 8.0 0.00 0.00 0.00 46 1020.6
20260503211533 79 111 0.0 7.0 0.00 0.00 0.00 44 1020.6
20260503210024 80 169 1.0 5.0 0.00 0.00 0.00 45 1020.8
20260503204522 80 178 3.0 10.0 0.00 0.00 0.00 45 1020.9
20260503203020 79 150 1.0 5.0 0.00 0.00 0.00 44 1021.3
20260503201520 79 156 1.0 7.0 0.00 0.00 0.00 44 1021.5
20260503200019 78 158 2.0 10.0 0.00 0.00 0.00 43 1021.8
20260503194556 79 136 1.0 7.0 0.00 0.00 0.00 45 1021.9
20260503193110 78 146 1.0 9.0 0.00 0.00 0.00 45 1022.2
20260503191558 79 128 2.0 5.0 0.00 0.00 0.00 43 1022.5
20260503190106 79 118 2.0 6.0 0.00 0.00 0.00 44 1022.6
20260503184556 79 5 2.0 5.0 0.00 0.00 0.00 45 1022.7
20260503183101 79 195 1.0 4.0 0.00 0.00 0.00 44 1022.8
20260503181552 79 154 0.0 5.0 0.00 0.00 0.00 40 1023.2
20260503180057 79 153 0.0 6.0 0.00 0.00 0.00 40 1023.4
20260503174550 79 153 0.0 3.0 0.00 0.00 0.00 39 1023.6
20260503173108 79 155 1.0 7.0 0.00 0.00 0.00 39 1023.9
20260503171550 77 138 2.0 8.0 0.00 0.00 0.00 40 1023.9
20260503081512 62 22 0.0 0.0 0.00 0.00 0.00 84 1021.7
20260503071511 63 22 0.0 0.0 0.00 0.00 0.00 83 1021.6
20260503060103 65 22 0.0 0.0 0.00 0.00 0.00 81 1021.7
20260503054555 65 22 0.0 0.0 0.00 0.00 0.00 80 1021.6
20260503053052 66 22 0.0 0.0 0.00 0.00 0.00 80 1021.6
20260503051556 66 22 0.0 0.0 0.00 0.00 0.00 78 1021.4
20260503050047 66 22 0.0 0.0 0.00 0.00 0.00 76 1021.3
20260503044546 66 22 0.0 1.0 0.00 0.00 0.00 75 1021.1
20260503043050 67 22 0.0 1.0 0.00 0.00 0.00 76 1021.1
20260503041545 67 22 0.0 1.0 0.00 0.00 0.00 75 1021.2
20260503040044 67 22 0.0 1.0 0.00 0.00 0.00 75 1021.0
20260503034544 67 22 0.0 1.0 0.00 0.03 0.00 74 1020.9
20260503033046 67 22 0.0 1.0 0.00 0.03 0.00 76 1020.7
20260503031543 67 22 0.0 1.0 0.00 0.03 0.00 74 1020.7
20260503030043 68 22 0.0 1.0 0.00 0.03 0.00 72 1020.7
20260503024542 68 22 0.0 0.0 0.00 0.08 0.00 72 1020.7